User: anonymous   Login
Location: Irma
(52.9170°N, 111.2330°W)
Time: 00:52:29
(UTC-07:00)
Language:

deb Chang Zheng 4 - Orbit

View from above orbital plane
View from above orbital plane
View from above satellite
View from above satellite

Ground track
Ground track

The orbit data is extracted from the following two-line orbital elements,

1 20847U 90081K   16342.42909508  .00002702  00000-0  36818-3 0  9992
2 20847  98.5462 208.5137 0017469 321.8265  38.1707 14.79537307377444
Epoch (UTC): 07 December 2016 10:17:53
Eccentricity: 0.0017469
inclination: 98.5462°
perigee height: 618 km
apogee height: 643 km
right ascension of ascending node: 208.5137°
argument of perigee: 321.8265°
revolutions per day: 14.79537307
mean anomaly at epoch: 38.1707°
orbit number at epoch: 37744

The dashed part of the orbit path shows where the satellite is in the earth's shadow,  

DLR